RH
92 97 102 106 105 102 103 97 100 104 102 102 102 104 99 95 100 102 101 102 102 99 97 95 92 89 86 83 81 78 73 70 67 66 66 64 62 61 58 55 51 46 41 35 29 22 16 12 11 11 12 13 15 16 16 17 17 18 18 17 17 17 16 16 16 15 16 15 16 16 15 15 15 15 15 15 15 15 15 16 16 16 16 15 16 17 19 20 22 24 25 26 27 28 28 29 29
97 100 100 101 102 103 104 96 98 100 98 99 101 106 100 97 97 96 96 97 97 95 94 91 88 84 82 80 77 75 71 68 66 64 61 59 56 52 48 43 37 31 24 18 14 12 12 14 15 16 17 18 19 19 19 18 18 18 18 17 17 17 17 16 16 15 15 15 14 14 14 14 14 14 15 15 16 16 15 16 16 17 17 19 20 22 24 25 27 29 30 32 34 34 34 33 32
91 97 98 99 100 102 104 101 100 100 99 96 99 103 97 99 97 94 96 97 97 95 93 90 86 82 80 77 73 69 66 62 59 56 52 48 43 37 32 26 21 15 12 12 13 15 18 20 20 21 20 20 19 19 19 18 18 18 17 18 17 17 17 16 15 15 14 13 13 13 13 13 13 13 14 15 15 16 16 17 18 19 21 23 25 27 28 30 31 32 34 35 36 35 33 32 32
71 78 85 92 97 100 102 103 100 100 103 99 100 102 97 100 99 97 98 97 96 93 90 86 82 77 73 69 64 60 56 52 48 43 38 33 27 22 18 14 12 12 14 17 20 21 22 23 22 22 21 20 19 19 18 18 18 17 17 17 17 16 15 14 13 13 12 12 12 12 12 12 13 13 13 14 15 16 17 18 19 20 22 23 25 26 27 28 28 29 30 31 30 28 26 25 26
53 60 69 79 87 91 95 97 97 99 102 100 101 101 98 98 97 96 95 92 89 84 81 76 72 67 62 57 51 47 43 38 34 29 25 21 17 14 13 14 16 19 21 22 23 23 22 22 21 21 20 19 18 18 17 16 16 16 16 15 14 13 13 13 12 12 12 12 12 13 13 13 14 14 14 14 15 16 17 18 19 20 21 21 21 21 21 22 23 24 24 24 24 22 21 21 23
47 55 62 71 79 82 87 88 87 89 90 91 93 92 90 90 90 89 86 83 78 72 68 62 57 51 46 41 36 33 29 27 24 21 18 15 15 16 18 21 23 23 23 22 22 21 21 20 19 18 17 17 16 15 15 15 14 14 14 13 13 13 12 12 13 13 13 13 14 14 14 14 14 14 15 15 16 16 17 17 18 19 19 18 18 17 17 18 19 20 21 21 21 19 20 21 21
42 50 57 66 73 76 80 80 79 79 78 77 78 78 79 81 80 78 74 68 62 56 49 44 39 34 32 29 27 26 24 22 19 17 16 18 21 23 24 24 23 23 22 21 20 19 18 18 17 16 15 15 15 14 14 13 13 13 12 12 12 12 12 12 13 13 13 14 13 14 14 14 15 15 15 15 16 16 16 16 16 16 16 16 15 15 15 16 17 18 19 18 18 18 19 20 21
31 38 48 57 63 65 65 65 64 64 63 63 65 66 67 67 64 60 55 48 41 36 32 29 27 26 26 26 25 23 21 19 17 20 23 26 27 26 25 23 22 21 21 20 19 18 17 17 16 15 15 14 14 13 13 12 12 12 11 11 11 11 11 11 11 11 12 12 12 13 13 14 14 14 15 15 15 15 15 15 15 15 14 14 13 14 14 15 16 16 16 16 16 17 19 21 22
26 31 37 44 47 48 48 47 46 45 46 48 50 51 50 48 44 40 36 31 28 27 26 26 26 27 27 25 23 21 20 21 24 28 29 29 27 25 24 22 22 20 20 19 18 17 16 15 15 14 13 13 12 12 11 11 11 10 10 10 10 10 10 10 10 10 10 11 11 12 12 13 13 13 14 14 14 14 14 14 13 13 13 13 13 13 13 14 14 14 14 15 16 18 21 22 22
29 32 35 37 39 39 40 38 37 35 36 37 38 38 37 36 33 31 29 28 28 28 28 28 28 27 25 23 22 22 25 28 31 31 29 27 25 24 23 22 21 20 19 18 17 16 15 15 14 13 13 12 12 11 11 11 10 10 10 10 10 9 9 9 9 9 9 10 10 10 11 11 12 12 12 12 12 12 12 12 12 12 12 12 12 12 12 13 12 13 13 15 17 19 21 22 24
33 34 36 36 38 39 39 38 36 36 35 35 35 35 34 33 31 30 29 28 29 29 29 28 27 26 24 24 26 29 32 33 32 29 27 25 24 23 22 21 20 19 18 17 17 16 15 14 14 13 13 12 12 11 11 10 10 10 10 10 9 9 9 8 8 8 8 9 9 9 10 10 11 11 11 11 11 11 11 11 11 11 11 11 11 11 11 12 12 12 13 16 19 21 22 23 25
36 36 36 38 39 39 39 38 37 37 36 35 34 33 32 30 29 28 28 29 29 29 29 28 27 26 26 29 32 34 34 32 29 27 25 24 23 22 21 20 19 19 18 17 17 16 16 15 14 13 12 12 12 11 11 11 10 10 10 9 9 9 9 8 8 8 8 8 8 8 9 9 10 10 10 10 10 11 11 11 11 11 11 11 11 11 11 11 12 13 15 18 20 21 22 24 26
36 37 37 38 39 39 39 38 37 36 34 33 31 30 29 28 28 29 29 29 29 29 28 28 28 30 32 35 36 34 32 30 27 26 25 24 22 22 21 20 20 19 18 17 17 16 15 15 14 13 13 12 12 11 11 10 10 9 9 9 9 8 8 8 8 8 8 8 8 8 8 9 9 10 10 10 10 10 10 11 11 11 11 11 11 11 11 12 12 14 17 19 20 21 23 26 29
35 36 37 36 36 37 36 35 33 32 30 29 29 28 29 29 30 30 30 30 31 30 30 30 32 35 37 37 35 33 30 28 26 26 24 24 22 21 21 20 19 19 18 18 17 16 15 14 14 13 13 12 11 11 10 10 9 9 9 8 8 8 8 8 8 8 8 8 8 8 8 8 9 9 10 10 10 10 11 11 11 11 11 11 11 11 12 12 14 15 16 17 19 22 26 30 34
33 33 34 34 34 33 32 31 29 29 29 29 29 30 30 31 31 32 33 33 33 33 34 35 37 37 37 36 34 31 29 28 26 25 25 24 23 22 21 20 19 18 18 17 16 15 14 14 13 13 12 12 11 10 10 9 9 9 9 9 8 8 8 8 8 8 8 8 8 8 8 8 9 9 10 10 11 11 11 11 12 12 12 12 12 12 13 13 14 14 15 17 21 26 31 37 41
30 31 31 31 30 29 29 28 28 29 30 31 32 33 34 35 35 36 37 37 38 38 39 39 39 37 36 34 32 30 28 28 26 26 25 23 22 21 21 20 19 18 18 17 16 15 15 14 14 13 12 12 11 11 10 10 9 9 9 9 9 8 8 8 8 8 8 8 8 8 8 9 9 9 10 10 11 11 12 12 12 13 13 13 13 13 13 13 13 13 15 19 25 31 37 43 47
29 30 30 28 27 27 28 29 30 31 33 34 36 37 38 40 41 41 41 41 43 42 41 39 38 36 34 32 30 30 29 28 27 26 25 23 23 22 21 20 19 19 18 17 17 16 15 15 14 13 13 12 12 11 11 11 10 10 10 9 9 9 8 8 8 8 8 8 8 9 9 9 9 10 10 11 11 11 12 12 12 13 13 13 13 13 13 13 14 15 18 24 31 37 43 48 51
29 28 27 27 28 29 31 33 34 36 37 38 40 43 45 47 47 46 44 44 43 41 39 37 35 34 32 31 30 29 28 27 27 26 25 24 23 22 21 20 20 19 18 18 17 17 16 15 15 14 13 13 12 12 11 11 11 11 10 10 10 10 9 8 8 8 8 8 9 9 9 9 9 10 10 11 12 12 12 13 13 13 13 13 14 14 14 15 16 18 23 30 37 43 48 50 49
27 26 28 30 32 35 36 38 40 41 43 45 47 48 49 50 48 47 45 42 40 37 36 35 33 32 32 31 30 29 29 28 27 26 25 24 23 23 22 21 20 19 19 18 17 17 16 16 15 15 14 14 13 13 13 12 12 11 11 10 10 10 9 9 9 8 8 8 9 9 9 9 9 10 10 11 11 12 13 13 14 14 14 14 15 15 15 16 18 22 27 34 41 45 47 46 42
28 30 33 36 38 40 42 44 46 48 50 52 52 51 50 49 47 44 41 39 37 36 34 33 32 32 32 31 31 30 29 28 27 26 25 24 24 23 22 22 21 20 19 18 17 17 16 16 16 16 15 15 15 14 14 13 13 12 11 11 10 10 9 9 8 8 8 8 9 9 9 9 10 10 10 11 11 12 13 13 14 14 15 15 15 16 16 17 20 25 31 37 41 43 43 39 34
35 38 40 43 44 46 48 50 52 53 54 54 53 50 48 46 44 41 39 38 37 35 34 34 34 33 33 32 31 30 29 28 27 26 26 25 24 23 23 22 21 20 20 19 19 18 17 17 17 17 16 16 16 15 15 14 13 13 12 11 11 10 9 9 9 9 9 8 9 9 9 10 9 10 10 11 12 12 13 13 14 14 15 15 15 16 17 19 23 29 35 38 39 40 38 34 29
42 45 47 48 50 52 53 55 55 55 53 52 50 48 46 43 41 40 38 38 37 36 36 35 35 34 34 32 31 30 29 29 28 27 26 25 24 23 22 21 21 21 21 21 20 19 18 18 18 17 17 17 16 15 15 14 13 13 12 12 11 10 10 9 9 9 9 9 9 9 9 10 10 10 11 11 12 12 13 13 14 14 14 15 15 16 19 22 28 33 36 37 36 35 32 28 24
50 52 53 54 56 57 56 55 54 52 50 48 47 45 44 42 41 41 39 39 38 37 36 36 35 33 33 32 31 30 30 29 28 27 26 25 24 23 23 22 22 21 21 21 20 20 19 19 18 18 17 17 16 15 15 14 14 13 12 12 11 11 10 10 10 10 10 9 10 10 10 10 11 11 11 12 12 13 13 13 14 14 14 14 16 18 22 27 31 34 34 34 32 29 25 21 18
57 58 59 60 58 56 54 52 51 49 48 47 46 45 45 43 42 42 41 40 39 38 37 35 34 34 33 32 32 31 30 29 28 27 25 25 24 23 23 23 23 22 22 21 21 20 19 19 18 18 17 16 16 15 15 14 13 13 12 12 11 11 10 10 11 10 10 10 10 10 10 11 11 11 12 12 13 13 13 14 14 14 14 16 18 22 25 29 30 32 31 29 25 22 19 15 12
62 62 61 58 53 51 50 50 50 49 49 48 48 47 46 45 44 43 42 41 40 38 38 37 36 35 34 33 32 31 30 29 28 27 26 26 25 24 24 23 23 22 22 22 21 20 19 18 18 17 16 16 15 14 14 14 13 13 12 12 11 11 11 10 11 11 11 11 11 11 11 11 11 12 12 13 14 14 14 14 14 15 16 18 21 24 27 28 29 29 26 22 19 16 14 11 8
64 61 55 51 48 49 49 50 50 50 50 50 49 49 48 47 46 46 44 42 42 41 39 38 37 35 34 33 32 31 30 29 29 28 27 26 26 25 24 24 23 22 22 21 20 20 19 18 17 16 16 15 15 14 14 13 13 12 12 11 11 10 10 11 11 11 11 11 11 11 11 12 12 12 13 14 14 15 15 15 15 16 17 19 22 25 27 27 26 24 20 17 14 12 9 7 6
60 55 50 47 48 48 49 50 50 50 51 52 52 51 51 51 49 47 46 44 43 42 40 38 37 35 35 34 33 32 31 30 29 28 28 27 26 25 24 24 23 22 21 20 20 19 18 17 16 16 16 15 14 14 14 13 12 12 12 11 10 11 10 11 11 11 11 11 11 11 12 12 13 14 14 15 15 15 16 16 16 17 19 22 24 26 25 23 20 17 14 13 11 8 6 5 5
54 50 48 47 48 48 49 50 50 52 53 54 56 54 53 53 50 47 46 46 43 41 40 38 37 36 35 34 33 32 31 30 29 28 27 26 26 25 24 23 23 22 21 20 19 18 18 17 16 16 15 15 14 14 14 13 12 12 11 11 11 11 11 11 11 12 12 11 11 11 12 12 13 14 15 15 16 16 17 18 18 20 22 24 25 23 20 17 14 13 11 10 8 6 5 4 4
50 48 48 49 50 51 52 54 55 56 57 58 58 56 53 52 51 47 45 44 43 41 39 38 37 36 34 34 32 31 30 29 29 28 27 26 25 24 24 23 22 22 20 19 18 17 17 16 16 16 15 15 14 14 13 13 12 11 11 11 11 11 11 12 12 12 12 11 11 11 11 12 13 14 14 15 15 17 18 19 20 21 22 22 20 17 14 12 10 10 8 7 6 4 4 4 3
51 51 53 55 57 58 59 61 61 60 59 58 57 54 50 49 49 47 43 42 41 39 38 37 36 35 33 33 31 31 30 29 28 27 26 25 25 24 23 22 21 21 20 19 18 17 17 16 16 15 15 15 14 14 13 13 12 11 11 11 11 11 11 12 12 12 11 11 11 11 11 12 12 13 14 15 16 17 18 19 19 19 18 17 15 12 10 9 8 7 6 5 5 4 4 3 3
57 58 59 61 62 62 61 60 60 58 56 53 52 50 47 45 44 44 42 40 38 37 36 35 34 33 32 32 31 30 29 28 27 26 26 25 24 24 23 22 21 20 20 19 18 17 17 16 16 15 15 14 14 13 13 13 12 11 11 11 12 12 11 11 11 11 11 10 10 11 12 13 14 15 16 18 18 18 18 18 17 15 15 13 11 10 8 7 6 5 4 4 4 3 3 4 3
63 63 62 61 61 60 57 55 54 52 50 48 46 45 44 42 39 39 39 38 37 35 34 33 32 32 31 30 30 29 28 27 26 26 25 25 24 23 22 22 20 19 19 18 17 17 17 16 16 15 15 14 14 13 13 12 12 12 12 12 12 12 11 11 11 11 10 10 11 12 14 15 17 18 19 19 18 18 17 15 13 12 11 10 8 7 5 5 4 4 3 3 3 3 3 4 3
62 60 58 56 55 53 52 50 48 46 45 44 42 40 40 39 36 34 35 36 37 35 33 32 31 30 29 29 28 28 27 26 26 25 24 24 24 23 22 21 20 19 18 17 17 17 17 16 16 15 14 14 14 13 12 12 12 12 12 12 12 12 11 11 11 10 10 10 11 13 15 18 19 20 19 18 17 15 14 12 11 10 8 7 5 4 4 3 3 3 3 3 3 4 3 4 4
56 54 52 50 49 47 46 46 45 43 41 40 39 37 37 37 35 33 31 31 33 34 33 31 29 28 28 27 27 26 26 25 25 24 24 23 23 23 22 21 19 18 18 17 17 17 17 16 16 15 14 14 14 13 13 12 12 12 13 13 12 12 11 11 10 10 11 11 13 15 18 19 19 19 17 15 14 12 11 10 8 7 6 5 4 3 3 3 3 3 3 4 3 4 4 3 4
50 49 48 47 46 45 43 43 43 40 39 38 37 36 36 36 34 33 31 29 29 30 30 30 29 27 26 26 25 25 25 25 24 23 23 22 22 22 21 21 19 18 17 17 17 17 16 16 15 14 14 14 13 13 13 13 13 12 12 12 12 12 11 11 11 11 12 14 16 18 19 19 17 16 14 12 11 9 8 7 5 5 4 4 3 3 3 3 3 3 3 4 4 4 4 3 4
46 46 45 45 45 44 41 40 40 38 37 37 36 35 35 35 33 32 31 29 28 28 28 28 27 26 26 25 24 24 24 24 23 22 22 21 21 21 20 20 19 18 17 17 17 16 15 15 14 14 14 14 13 13 13 13 13 13 12 12 11 11 11 11 11 12 14 16 18 19 17 16 14 12 11 9 8 7 6 5 4 4 3 3 3 3 3 3 3 4 4 4 4 4 4 4 3
44 44 43 42 41 41 39 37 36 35 34 35 34 34 36 36 34 33 31 29 28 27 27 26 26 25 25 24 24 23 23 23 22 21 21 21 21 21 20 19 18 17 17 16 16 15 14 14 14 14 14 13 13 13 13 13 13 12 11 11 11 11 12 12 13 15 17 17 17 16 14 12 11 10 8 7 6 5 4 4 4 4 3 3 4 3 4 4 4 4 4 4 4 4 4 4 4
42 41 39 38 36 36 36 35 34 34 34 35 34 34 37 36 34 34 31 30 29 27 27 26 25 25 24 24 23 22 22 21 21 21 20 20 20 21 19 18 18 17 16 15 15 14 14 14 14 14 14 14 14 13 13 12 12 12 11 11 12 12 14 15 16 17 17 16 14 13 11 10 9 7 6 5 4 4 4 4 4 4 4 3 4 4 4 4 4 4 4 5 5 5 5 4 3
39 38 36 36 36 35 36 36 35 35 35 37 36 36 39 38 35 35 33 31 31 28 28 27 25 25 24 23 22 21 21 20 20 20 20 20 20 20 19 18 17 16 16 15 14 14 13 14 14 13 14 14 13 13 12 12 12 12 12 13 14 14 15 16 16 16 15 14 12 11 9 7 6 5 4 4 4 4 4 4 4 4 4 4 4 5 5 5 5 5 5 5 6 5 5 4 3
36 37 36 36 35 34 35 36 36 37 35 36 36 35 41 42 37 36 34 31 31 30 30 28 25 25 23 22 21 20 20 20 20 20 20 21 19 19 18 16 15 15 15 14 14 14 14 14 14 13 13 13 13 13 13 13 13 14 14 14 15 15 16 15 14 13 11 11 10 8 7 5 4 4 4 4 4 4 4 4 5 4 4 4 5 5 5 5 5 6 6 6 6 5 5 4 3
37 37 37 37 37 35 34 33 34 36 35 35 34 32 40 46 40 38 36 31 29 28 28 26 24 23 22 22 21 20 20 20 20 21 21 21 19 17 15 14 15 14 14 14 14 14 13 13 13 13 13 13 14 15 15 15 16 17 16 15 15 14 13 12 11 10 9 8 8 6 5 4 4 4 3 4 5 4 5 5 5 5 5 5 6 6 6 6 6 6 7 7 6 5 5 4 3
40 38 37 37 37 37 36 34 33 35 35 36 34 30 35 42 40 36 34 29 26 24 23 24 23 22 22 21 21 20 20 20 20 21 20 19 17 16 15 15 15 14 13 13 13 13 13 13 14 14 15 16 17 18 18 18 17 17 16 14 13 12 11 9 8 8 7 6 6 4 4 4 3 3 4 5 5 5 5 6 6 5 5 6 6 7 7 7 7 7 8 7 6 5 4 4 3
41 40 39 38 37 36 36 34 33 33 34 34 33 28 27 33 35 32 29 27 24 22 21 22 22 22 21 20 20 20 20 20 19 19 18 17 17 16 15 15 15 14 14 14 13 13 14 15 16 17 18 19 19 19 19 17 16 15 13 12 10 9 8 7 6 6 5 5 4 4 4 3 4 4 5 6 6 6 6 6 6 6 6 7 7 8 8 8 8 8 8 7 6 5 4 4 3
42 40 40 39 37 36 35 34 33 31 31 31 31 28 26 28 31 30 26 25 23 21 21 21 21 20 19 18 18 18 18 18 17 17 17 17 17 16 16 15 14 14 14 15 16 16 17 17 17 18 18 18 17 17 15 14 12 11 10 9 8 7 6 5 5 4 4 4 3 4 4 4 4 4 5 7 6 6 7 6 7 7 7 8 8 8 9 8 8 8 8 7 6 5 4 4 3
41 38 38 37 35 34 33 32 31 29 28 28 27 26 25 25 28 27 25 23 22 21 20 21 20 19 17 15 15 16 16 16 16 16 16 16 17 16 18 18 18 18 17 18 19 20 19 17 17 16 15 15 14 13 11 10 9 8 7 6 6 5 4 4 4 4 4 4 4 3 4 4 4 5 6 7 7 7 7 7 7 8 8 8 9 9 9 9 9 8 8 7 6 5 4 4 3
37 34 33 32 30 29 28 27 27 26 25 25 25 25 24 24 26 26 24 22 20 19 18 18 17 16 15 15 15 15 15 15 15 16 17 18 19 20 21 22 22 22 21 20 19 18 16 15 13 12 11 11 10 10 8 8 7 6 6 5 4 4 4 4 3 4 4 3 4 4 4 5 5 6 8 8 8 8 8 8 8 8 9 9 10 10 10 10 9 8 8 7 6 5 4 4 4
30 28 27 27 27 26 26 26 25 26 25 25 24 24 22 21 21 21 20 18 16 16 16 16 16 15 15 15 15 15 15 17 18 20 21 21 22 22 22 22 21 19 18 16 14 13 11 10 9 9 8 8 7 7 7 6 5 5 4 4 4 4 4 4 4 4 4 4 4 4 4 5 6 7 9 9 9 8 8 9 9 9 10 10 11 11 11 10 9 8 8 7 6 5 4 4 4
28 27 26 26 27 26 27 26 25 24 23 22 20 19 18 17 17 17 16 15 14 14 15 15 15 15 15 17 17 17 17 18 19 19 19 18 18 18 17 16 14 13 11 10 9 9 8 7 7 6 6 6 6 6 6 5 5 4 4 4 4 4 4 4 4 4 5 5 5 5 5 5 7 8 10 10 9 9 10 10 10 11 11 11 12 12 12 11 9 9 8 7 6 5 5 4 4
29 28 27 26 26 25 24 22 21 20 19 18 17 16 17 17 17 16 14 13 13 14 14 14 15 16 17 18 18 17 16 15 15 14 13 12 11 11 10 9 9 8 7 6 6 6 6 5 5 5 5 5 5 5 5 5 5 4 4 4 4 5 4 4 5 5 5 5 5 5 5 6 8 9 11 11 10 10 11 11 11 12 12 13 13 13 12 10 9 8 7 6 6 5 5 5 5
27 26 24 22 20 18 17 16 16 16 17 18 17 16 17 17 17 17 17 17 16 16 16 17 18 18 18 16 14 12 11 10 9 8 7 7 6 6 6 6 6 5 5 5 5 4 5 5 5 5 5 5 5 5 5 5 5 4 4 5 5 5 5 5 5 6 5 5 5 5 6 7 8 10 11 11 10 11 12 12 13 13 14 15 14 14 12 10 9 8 7 6 6 5 5 5 5
22 20 18 18 17 16 16 15 15 15 15 16 16 17 19 20 20 21 22 21 19 17 16 15 14 13 11 10 8 7 6 6 5 5 5 5 5 5 5 5 5 5 5 5 5 5 5 5 5 5 5 5 5 5 5 5 5 5 5 5 5 5 6 6 6 6 6 5 6 6 7 8 9 10 11 11 11 12 13 13 14 14 15 16 15 14 12 10 9 8 7 7 6 6 5 6 5
19 19 19 19 18 17 17 16 16 16 17 18 19 22 23 22 20 18 17 15 13 11 9 8 6 6 5 5 5 5 5 5 5 4 5 5 6 6 5 6 5 5 6 5 5 5 5 6 6 6 6 6 6 5 6 6 5 6 6 6 6 6 6 6 6 6 6 6 6 6 7 8 9 11 12 12 12 13 14 14 14 15 16 17 16 14 12 10 9 8 8 7 6 6 6 6 5
20 19 19 19 19 20 21 23 24 24 23 22 21 20 19 16 13 11 9 8 7 6 5 5 5 4 4 4 4 5 5 5 5 5 5 6 6 6 6 6 6 6 6 6 6 6 6 7 6 7 7 7 7 6 6 6 6 7 7 6 6 6 6 6 6 7 6 6 7 7 8 8 9 11 11 12 13 13 14 15 15 16 17 18 16 14 13 11 10 9 8 8 6 6 6 6 5
22 23 23 25 27 29 28 28 27 23 20 17 15 14 11 9 7 6 6 6 5 5 5 5 5 5 5 5 5 5 5 5 5 5 5 5 5 5 6 6 6 6 7 7 7 7 7 8 7 8 8 8 8 7 7 7 7 7 7 7 6 6 7 7 7 7 7 7 7 7 8 9 9 11 11 12 13 14 14 15 15 17 18 18 17 15 14 12 10 10 9 8 7 6 7 6 5
31 32 31 29 28 26 24 21 18 14 12 10 8 8 8 6 5 5 5 5 5 5 5 4 4 5 5 4 4 4 4 4 4 4 5 5 5 5 5 5 5 6 6 6 7 7 8 8 8 9 9 9 9 8 8 7 7 7 7 7 7 7 7 8 8 8 8 8 8 8 8 9 9 10 11 13 13 14 14 15 16 18 19 19 17 15 14 12 11 11 9 8 7 7 7 6 5
32 30 26 22 19 16 14 12 10 8 6 6 5 6 8 7 5 5 5 4 4 4 4 4 5 4 5 5 4 4 4 4 4 4 4 4 4 5 4 4 5 5 5 6 6 7 8 8 9 9 9 9 9 8 8 7 7 8 8 8 8 8 8 9 9 9 9 9 9 9 9 9 10 11 12 13 13 14 14 15 16 19 20 19 17 16 15 13 12 11 10 9 8 7 8 7 6
23 20 17 14 11 9 8 7 7 6 6 6 5 6 8 7 5 6 6 5 5 6 5 5 5 5 5 5 4 4 4 4 4 4 4 4 4 4 4 4 4 4 5 5 6 6 7 7 8 8 9 9 9 9 8 8 9 9 9 9 10 10 10 10 10 10 10 10 10 9 10 10 10 11 12 12 13 13 14 15 16 19 20 19 17 16 15 13 13 12 11 9 8 8 8 7 6
15 13 11 10 8 7 6 6 7 7 7 7 6 6 8 8 7 6 7 7 6 6 6 6 5 5 5 5 4 4 4 3 4 3 3 4 4 4 4 4 4 4 4 4 5 5 5 6 7 8 9 9 9 10 10 10 10 10 10 10 10 11 11 11 11 11 11 10 10 10 10 10 10 11 12 12 13 14 14 15 16 18 20 19 18 17 15 14 13 12 11 9 9 8 8 7 6
Wind_Speed
57 58 59 59 59 59 60 60 59 59 59 58 58 59 61 60 60 61 61 61 62 63 63 64 65 65 66 67 68 69 70 70 71 71 72 73 74 75 76 76 77 76 75 74 72 70 67 63 58 53 50 47 46 45 44 44 44 45 45 46 48 49 50 51 52 53 54 55 56 57 59 60 61 62 63 64 65 66 66 67 68 69 70 70 71 72 73 74 75 76 77 79 80 81 81 82 83
57 58 59 60 60 60 60 60 59 59 60 60 59 60 61 61 61 62 62 62 63 63 64 65 66 67 67 68 69 70 71 71 72 72 73 74 74 74 74 73 72 70 68 65 61 57 53 49 46 44 43 42 42 43 43 44 45 46 47 49 50 52 53 54 55 57 58 59 60 61 63 64 65 65 66 67 69 70 70 71 72 73 74 75 76 77 78 79 79 80 81 82 83 84 84 85 86
60 60 60 60 60 60 60 60 60 59 60 60 60 61 61 61 62 62 62 62 63 64 64 65 66 67 68 69 70 71 72 72 72 73 73 72 71 69 67 65 63 60 56 52 48 45 43 42 42 42 42 42 43 44 45 46 47 49 50 52 54 55 56 58 59 60 61 62 63 65 66 67 67 68 69 70 71 73 74 75 76 76 77 79 79 80 80 81 81 82 83 84 85 86 87 88 89
61 61 62 62 62 61 61 61 60 60 61 61 61 62 62 62 62 62 63 63 63 64 65 66 67 68 69 70 70 71 71 71 70 69 68 66 63 61 59 57 53 49 45 42 41 41 41 42 43 43 44 45 45 46 48 49 50 52 53 55 56 58 59 60 61 62 64 65 66 67 68 69 70 71 71 72 73 75 76 77 79 79 80 81 81 82 82 82 83 84 85 86 87 88 90 91 92
59 60 61 62 62 62 62 62 62 62 62 62 62 63 63 63 63 63 64 64 64 65 66 67 67 68 68 68 68 68 67 66 64 62 61 59 57 54 50 46 43 40 39 39 40 42 42 43 44 45 46 46 48 49 50 51 52 54 55 57 58 59 60 62 63 65 66 67 68 69 70 71 72 73 73 74 74 75 76 78 79 81 82 83 83 84 83 83 84 85 86 88 89 91 92 94 95
57 58 59 60 61 61 62 62 62 63 63 63 63 63 63 63 64 64 64 65 65 65 65 65 64 64 64 63 62 61 60 59 58 56 55 52 49 45 41 39 38 39 39 40 41 42 44 44 45 46 47 48 49 50 51 53 54 55 57 58 60 61 63 64 65 67 68 69 70 71 72 73 74 74 75 75 76 76 77 78 80 81 83 84 84 85 85 85 85 86 88 89 91 92 94 95 96
55 56 57 58 58 59 59 60 60 60 61 61 61 62 62 62 62 62 62 61 60 59 59 58 57 57 57 57 57 56 55 54 53 50 47 44 41 40 39 38 39 40 41 42 42 43 45 45 46 47 48 49 50 52 53 54 55 57 58 60 61 63 64 65 67 68 69 70 71 72 73 74 75 75 76 77 77 78 78 79 81 82 83 84 85 85 85 86 87 88 90 91 93 94 95 96 97
53 53 53 53 53 53 53 53 53 54 54 54 55 55 55 55 55 54 53 53 52 52 52 52 53 53 53 54 53 52 51 49 46 43 40 39 39 39 40 40 41 41 42 43 43 43 44 46 47 48 49 49 50 52 53 54 56 57 59 60 62 63 65 66 67 68 69 70 71 72 73 74 75 75 76 77 78 79 80 80 81 83 84 85 85 86 86 87 88 90 92 93 94 95 96 97 98
50 50 49 49 48 48 47 46 46 46 46 45 45 45 46 46 46 46 47 47 48 49 50 50 51 51 50 50 49 48 45 43 41 39 39 39 39 40 41 42 42 42 43 43 43 44 44 46 47 47 48 49 50 51 53 54 56 57 58 60 61 63 64 65 66 68 69 70 71 72 73 73 74 75 76 77 78 79 80 81 82 83 84 85 86 86 87 88 90 92 93 94 94 95 97 98 99
49 48 47 46 46 45 44 43 42 42 41 41 41 41 42 43 43 44 46 46 47 48 48 48 48 47 47 46 44 42 40 39 38 38 39 40 40 41 42 42 42 43 43 43 44 45 45 45 47 47 48 48 49 51 52 53 55 56 57 59 60 62 63 64 65 67 68 69 70 71 72 73 74 75 76 76 77 78 79 80 82 83 84 85 86 86 88 89 91 92 93 94 95 96 97 99 100
48 48 47 46 45 43 42 41 40 40 40 40 40 41 42 42 44 44 45 46 46 46 46 45 45 44 43 41 40 39 38 37 38 39 39 40 41 42 42 42 43 43 44 44 45 46 47 46 47 47 48 49 49 51 52 53 54 55 56 57 59 60 61 62 64 65 66 68 69 70 71 72 73 74 75 76 77 78 79 80 81 82 84 85 86 87 88 90 91 92 93 94 95 97 98 99 100
48 48 47 45 43 42 41 40 39 39 39 40 40 41 41 42 43 44 44 44 44 43 43 42 41 41 39 38 38 37 37 38 39 40 40 41 42 42 43 43 43 44 45 46 46 48 48 48 48 48 49 50 51 51 52 54 54 55 56 57 57 59 60 61 62 63 65 66 67 68 69 70 71 73 74 75 76 77 78 79 80 82 83 84 85 87 88 90 91 92 93 94 96 97 98 98 100
47 47 45 43 42 40 39 39 38 38 39 39 40 40 41 41 42 42 42 41 41 40 40 39 39 38 37 37 37 38 38 39 40 40 41 42 43 43 43 44 44 45 46 47 48 49 49 50 50 50 51 51 52 52 52 54 55 55 55 56 56 57 58 59 60 62 63 64 65 66 68 69 70 72 73 74 75 76 78 79 80 81 83 84 85 86 88 89 90 91 93 94 95 96 97 98 100
46 44 43 41 40 38 38 37 37 37 38 38 38 39 39 39 39 39 39 38 38 38 37 37 37 36 36 37 38 39 40 40 41 42 43 44 44 44 45 45 45 46 47 49 50 50 50 51 51 52 52 53 53 54 53 54 55 55 55 56 56 57 58 58 59 60 62 63 64 65 66 68 69 71 72 74 75 76 77 79 80 81 82 83 85 86 87 88 89 91 92 94 95 96 97 98 100
43 42 40 38 37 36 35 35 36 36 36 36 36 36 36 36 36 36 35 35 35 35 36 36 36 36 37 38 39 40 41 42 43 44 45 45 46 46 46 46 47 48 49 50 51 51 52 52 53 53 54 54 55 55 56 56 57 57 57 58 59 59 59 60 60 61 61 62 63 64 65 67 68 70 71 73 74 76 77 78 79 81 82 83 84 85 86 88 89 91 92 93 94 96 97 99 101
40 38 36 34 33 33 33 34 34 33 33 33 33 33 32 32 32 32 33 33 34 34 35 35 36 37 39 40 40 41 42 44 45 45 46 47 47 48 48 49 49 50 51 52 53 54 54 55 56 56 57 57 57 58 59 59 60 60 60 61 61 61 61 62 62 62 62 63 63 64 65 66 68 69 71 72 74 75 76 78 79 80 81 83 84 85 86 88 89 90 92 93 94 96 98 100 102
35 33 32 31 31 31 31 31 31 31 30 30 30 29 29 29 30 31 32 32 33 34 35 36 37 38 40 41 42 43 44 45 46 47 48 48 49 49 50 51 52 53 53 54 55 56 57 58 59 59 59 59 59 60 61 62 63 64 64 64 64 64 64 64 63 63 63 63 64 64 65 66 67 69 70 72 73 75 76 77 78 80 81 82 84 85 87 88 89 90 91 92 94 96 98 101 103
30 29 29 29 29 29 29 28 28 28 28 27 27 27 27 28 29 30 31 33 34 36 36 37 38 40 41 42 43 44 45 47 48 48 49 50 50 51 52 53 54 55 56 57 57 59 60 60 61 61 61 62 62 62 63 64 65 66 67 67 67 67 67 66 66 65 64 64 65 65 65 66 67 69 70 71 72 74 75 77 78 79 81 82 84 85 86 87 88 90 91 93 95 97 100 102 105
27 26 26 26 26 26 26 26 26 25 25 25 25 26 27 28 29 31 32 34 36 37 38 38 39 41 42 43 45 46 47 48 49 50 50 51 52 53 54 55 56 57 58 59 59 60 62 62 63 64 64 65 65 66 66 67 68 69 69 69 70 70 69 68 68 67 67 66 66 66 66 67 68 69 70 71 72 74 75 76 78 79 81 82 83 84 85 87 88 90 92 94 96 99 102 104 107
25 24 24 24 24 24 24 24 23 23 23 23 25 26 28 29 31 32 34 36 37 38 39 40 41 42 44 45 46 47 49 50 51 52 52 53 54 55 56 57 59 60 61 62 62 63 63 65 65 66 67 67 68 68 69 70 70 71 71 71 71 71 70 70 70 70 70 69 68 68 68 68 68 69 70 71 73 74 75 76 77 79 80 81 83 84 85 87 89 91 93 95 98 101 104 106 108
22 22 22 23 23 22 22 21 21 22 23 24 26 28 29 31 33 34 35 36 38 39 40 42 43 44 45 46 47 49 50 52 53 54 54 55 56 57 58 59 61 62 63 64 65 66 66 67 68 68 69 69 70 71 71 71 72 72 72 73 73 72 72 72 72 72 72 71 70 69 69 69 69 70 71 72 73 74 75 76 77 78 80 81 83 84 86 88 90 92 95 97 100 103 106 108 109
21 22 22 22 21 20 20 20 21 23 24 26 28 30 32 33 34 36 37 38 39 41 42 43 44 45 46 47 49 50 52 53 54 55 56 57 58 59 60 62 63 64 65 66 67 69 69 69 70 71 71 72 72 72 73 73 73 73 73 74 73 73 73 73 73 73 72 72 71 71 70 71 71 71 72 72 73 74 75 76 77 79 80 82 84 85 87 89 91 94 97 99 102 105 107 108 110
21 21 20 19 19 19 19 21 22 24 26 28 30 32 33 35 36 37 38 39 40 42 43 44 45 47 48 49 51 52 54 55 56 57 58 59 60 61 62 64 65 67 68 68 69 71 72 72 73 73 74 74 74 74 74 74 75 75 74 74 74 73 73 73 73 73 73 73 72 72 72 72 72 73 73 74 74 75 76 77 79 80 82 83 85 87 89 91 94 96 99 101 103 105 107 108 109
19 18 18 17 18 19 21 22 25 26 28 30 31 33 34 36 37 38 39 41 42 43 45 46 47 49 50 51 52 54 55 56 57 59 60 61 63 64 65 66 67 68 70 71 72 73 74 75 75 76 76 76 76 76 76 76 76 76 76 75 75 74 73 73 74 73 73 73 73 73 73 73 73 74 74 75 76 77 78 79 80 82 84 86 87 89 91 94 97 99 101 103 104 105 107 108 108
16 16 17 18 19 21 23 24 26 28 29 31 32 34 35 37 38 39 41 42 44 45 47 48 49 51 52 53 54 55 56 58 59 60 62 63 65 66 68 69 70 71 71 73 74 75 76 77 77 78 78 78 78 78 78 78 78 78 77 77 76 75 75 74 74 74 74 73 73 74 74 74 75 75 75 76 77 78 80 81 83 84 86 88 90 92 94 97 100 102 103 103 104 105 106 107 105
16 17 18 19 21 23 24 25 27 28 30 32 33 35 37 38 40 41 43 44 46 47 49 50 51 52 54 55 56 57 58 59 61 62 64 65 67 69 70 71 72 74 74 75 76 78 79 80 80 80 81 80 80 80 80 80 80 80 79 79 78 77 77 77 76 75 75 74 74 74 74 75 76 76 76 77 78 80 81 83 84 86 89 90 92 95 97 100 102 103 103 103 104 105 105 104 103
17 18 20 21 22 23 25 26 28 29 31 33 35 37 38 40 42 43 44 46 47 49 50 52 53 54 56 57 59 60 61 62 63 65 66 67 69 71 72 74 75 76 77 78 79 80 81 82 82 82 83 83 83 83 82 82 82 82 81 81 80 80 79 79 78 77 76 75 75 75 74 75 76 76 77 78 79 81 82 85 86 89 91 93 95 98 100 102 103 103 103 104 104 104 103 102 101
18 19 20 21 23 24 26 28 29 31 33 34 36 39 40 41 44 45 45 48 49 51 52 53 55 57 58 59 61 63 64 65 66 67 68 70 71 73 74 76 77 78 80 81 81 82 83 84 84 84 84 85 85 85 85 84 84 84 83 83 83 82 81 81 80 79 78 77 76 76 76 76 76 77 78 79 80 82 84 87 89 91 93 96 99 101 102 102 102 102 103 103 103 102 101 100 98
18 19 21 22 24 26 27 29 31 33 34 35 38 41 42 42 45 48 47 49 51 53 54 55 57 59 60 62 63 65 66 67 68 70 71 73 74 76 77 79 80 81 83 84 84 84 85 86 86 86 86 86 86 86 86 86 86 86 85 85 85 84 83 82 82 81 80 79 79 78 78 78 78 79 80 81 82 84 87 90 92 94 97 100 102 103 103 102 102 102 103 102 102 101 99 97 96
19 20 22 23 25 28 29 30 32 34 36 37 38 43 45 42 44 50 51 50 52 55 56 57 59 61 63 64 66 67 69 69 71 72 74 75 77 79 81 82 83 84 85 87 87 87 87 88 88 88 87 87 88 87 87 88 88 88 87 87 87 86 85 84 83 83 83 82 81 81 81 81 81 82 83 84 86 88 90 93 96 98 100 103 104 104 103 103 102 102 101 100 99 98 96 95 93
20 22 24 25 27 29 31 32 34 36 38 40 39 43 49 47 44 49 53 53 54 57 59 59 61 63 64 66 68 69 71 71 73 74 76 77 80 82 83 85 87 87 88 89 90 90 90 90 90 89 89 89 89 89 89 89 89 89 90 89 89 88 87 86 85 85 85 84 84 84 84 84 85 86 87 88 90 92 95 97 100 101 102 104 105 104 103 102 101 100 99 98 96 95 93 92 91
22 24 26 28 29 31 34 36 37 37 40 43 42 43 51 54 49 48 52 55 57 59 62 63 63 65 66 67 69 71 73 74 75 76 78 79 81 83 85 87 89 90 91 91 92 92 92 92 92 91 91 91 91 91 91 91 91 91 91 91 90 90 89 88 88 87 87 87 87 87 87 87 88 90 91 93 94 96 99 101 102 103 104 105 105 104 102 101 100 98 97 95 93 92 91 90 89
25 27 28 30 32 33 35 38 40 40 42 45 45 44 50 58 57 53 52 54 58 62 66 67 67 68 69 70 71 73 74 76 78 79 80 81 83 85 87 89 91 92 92 93 94 94 93 93 93 93 92 92 93 93 93 93 93 93 93 92 92 91 91 90 90 89 89 89 89 89 90 91 92 94 95 97 98 100 102 104 104 104 105 105 105 103 101 99 97 96 94 93 91 90 89 87 86
27 29 31 33 35 36 37 39 42 43 44 47 48 45 50 58 62 60 58 57 57 62 67 71 72 73 73 74 75 77 77 78 80 81 82 83 85 87 89 91 93 94 94 94 94 94 94 94 94 95 94 94 95 95 95 95 95 95 94 93 93 92 92 92 92 91 91 91 91 92 93 94 96 97 99 99 100 101 103 104 105 104 104 104 103 101 99 97 95 93 92 91 90 88 86 85 84
30 32 34 36 38 40 40 41 44 45 45 50 51 48 50 58 63 65 66 64 62 64 67 72 76 77 77 78 78 80 81 82 83 84 85 86 87 89 90 92 94 95 95 95 95 95 95 95 95 96 96 96 97 97 97 97 97 96 95 94 94 94 94 94 93 93 93 93 94 95 96 98 99 100 101 101 101 102 103 104 104 103 103 103 101 98 96 94 92 91 90 89 88 86 85 83 82
33 35 37 38 40 44 44 44 47 48 47 51 54 51 52 59 64 67 70 70 69 68 70 73 77 80 82 83 83 83 84 85 86 87 88 89 90 91 92 94 95 96 96 96 96 96 96 96 97 97 98 98 98 99 98 98 97 97 96 95 95 95 95 95 95 94 95 95 97 98 99 100 101 101 102 102 101 101 102 103 103 102 102 100 98 96 94 92 90 89 89 88 86 84 83 82 80
37 38 40 42 43 46 49 48 50 52 51 53 57 55 55 61 65 68 72 74 75 73 73 75 79 82 84 86 87 88 88 88 89 90 91 92 92 94 96 96 97 97 97 98 98 98 98 98 98 98 99 99 100 100 99 98 98 97 97 96 96 96 96 96 96 96 97 98 99 100 101 101 102 102 102 101 100 100 100 101 101 101 100 97 95 93 92 90 89 87 87 86 84 83 82 81 80
40 42 44 46 47 48 52 53 53 55 55 56 59 59 59 64 66 70 74 77 79 78 77 78 81 84 86 88 90 91 91 92 92 93 93 93 93 95 98 99 98 99 99 100 100 100 100 100 100 99 100 100 100 100 100 99 98 98 97 97 97 97 97 97 98 99 100 101 102 102 102 102 102 102 101 100 99 99 99 99 99 99 97 95 93 91 90 89 87 86 86 84 83 82 82 81 79
44 46 47 49 51 51 53 56 57 58 59 59 61 62 63 67 69 72 76 79 82 83 82 83 84 86 89 90 92 93 93 94 95 95 95 96 96 96 100 101 100 100 101 101 101 101 101 101 101 100 100 100 101 101 100 99 99 99 98 98 98 98 98 99 100 100 101 102 103 103 102 101 101 100 99 99 99 98 98 97 97 97 95 92 90 90 89 87 86 85 84 83 82 81 81 81 78
47 49 51 52 55 55 55 58 60 62 64 63 64 64 64 70 73 74 78 81 84 86 86 88 89 90 92 93 94 95 95 95 96 97 98 100 101 101 102 103 102 102 102 102 102 102 102 102 102 101 101 101 101 101 101 100 100 100 100 100 100 100 100 101 101 102 102 102 103 102 102 101 99 98 97 97 98 97 96 95 95 95 93 90 89 88 87 86 85 84 83 82 81 81 81 80 77
52 52 55 56 58 60 61 62 62 64 68 69 70 68 64 71 77 79 81 83 85 86 88 90 92 93 95 95 96 97 97 97 97 98 100 103 105 106 105 104 104 104 104 103 103 102 102 102 102 102 102 101 101 101 102 102 101 101 102 102 102 102 102 102 102 103 103 103 102 102 101 100 98 96 95 96 96 96 94 93 93 93 91 89 88 87 86 85 84 83 82 81 81 81 80 79 76
56 57 58 60 61 63 65 66 67 67 69 72 75 73 67 70 78 82 86 89 89 89 89 91 93 95 96 97 97 98 98 98 98 99 101 104 107 108 107 106 105 106 105 105 104 103 103 102 102 102 102 102 102 102 103 103 103 103 104 104 104 104 103 103 103 103 103 102 102 101 99 98 97 95 93 94 94 94 92 91 91 91 89 87 87 86 85 84 83 81 81 80 80 80 80 77 74
60 61 62 64 65 67 68 70 71 71 72 74 79 80 74 72 78 84 89 93 94 93 91 92 94 96 97 97 97 97 98 98 99 100 103 105 107 108 108 106 105 105 105 105 105 104 103 103 103 103 103 103 104 104 105 105 105 104 104 105 105 104 104 103 103 103 103 102 100 99 98 97 95 93 91 91 92 91 90 89 89 89 88 87 86 85 84 83 81 80 80 79 79 79 78 75 71
63 65 66 68 69 71 72 74 76 76 76 78 81 84 81 79 81 86 90 94 97 96 94 94 96 98 99 99 98 96 97 98 99 101 103 105 106 107 107 107 106 105 104 104 105 105 105 105 104 104 105 105 105 106 106 106 105 105 104 104 104 104 103 102 101 102 102 100 99 97 96 95 93 90 89 89 89 89 88 88 87 87 86 85 85 84 83 81 80 79 78 78 78 78 77 74 69
66 68 69 71 73 74 76 77 79 80 81 81 84 86 86 83 85 90 93 96 100 99 96 96 98 99 101 102 100 97 97 99 100 101 103 104 105 106 107 107 107 107 106 105 105 106 106 106 106 106 106 106 106 106 107 106 106 105 104 104 103 103 102 101 100 100 100 99 97 95 94 92 90 87 87 87 87 86 86 86 86 86 85 84 84 83 81 80 78 77 77 76 77 76 75 71 67
70 71 72 74 76 77 79 81 82 84 85 86 87 89 89 87 87 92 94 96 100 100 97 96 98 100 101 102 101 100 100 101 101 102 103 105 106 107 107 108 108 109 109 108 107 106 106 106 106 106 106 105 105 106 106 106 105 104 103 103 102 101 101 99 99 98 98 97 95 93 92 89 87 85 85 85 84 84 84 84 84 84 84 83 83 82 80 78 77 76 75 75 75 74 73 70 66
74 75 75 76 79 80 82 85 86 87 88 90 90 91 92 90 89 92 95 97 98 98 96 96 98 100 101 102 103 103 103 102 102 103 104 106 106 107 108 109 109 109 109 109 107 106 106 105 106 105 104 104 103 104 104 104 104 103 102 101 100 100 99 98 97 96 96 95 93 91 89 87 84 82 83 82 82 83 83 83 83 83 83 83 82 80 78 77 76 74 73 74 73 72 71 68 65
78 79 80 80 81 82 84 86 88 89 90 92 92 92 94 93 92 93 96 98 97 96 96 96 97 99 100 102 103 104 103 103 104 105 106 106 107 107 108 108 108 108 108 107 106 105 105 105 105 104 104 102 101 101 102 103 102 102 100 99 99 98 96 95 95 94 93 92 90 88 86 84 81 80 80 80 80 81 81 82 82 82 82 82 81 79 77 75 74 73 72 72 71 70 69 67 64
83 83 84 85 85 85 86 87 89 90 91 93 94 94 94 95 95 95 97 98 98 97 97 97 98 99 101 102 104 104 103 104 104 105 106 106 106 106 107 107 107 107 107 106 105 104 103 103 103 103 102 101 99 99 100 100 100 99 98 97 96 95 94 93 92 92 91 89 88 86 83 80 78 78 78 78 79 79 80 80 81 81 80 80 79 77 75 74 73 71 70 70 69 68 67 66 64
85 86 87 89 90 89 88 89 90 91 91 93 95 95 95 96 96 97 98 99 100 100 100 99 99 101 103 104 104 104 103 104 104 104 104 104 104 105 105 106 106 106 106 105 105 104 102 102 102 101 101 99 97 97 98 98 97 96 95 94 93 92 91 91 90 89 88 87 85 83 80 77 76 75 75 76 77 78 79 79 79 79 79 78 77 75 73 72 71 69 69 68 68 67 65 65 64
86 88 89 91 92 93 92 92 93 93 92 93 94 95 96 96 97 98 98 99 100 101 100 99 98 98 99 100 100 101 102 103 103 102 102 102 103 103 103 104 104 105 104 104 103 102 101 101 101 100 99 98 96 95 95 95 94 93 92 91 91 90 89 88 87 86 85 84 82 80 77 75 74 72 72 75 76 77 77 78 78 77 77 76 74 73 72 71 69 68 67 67 67 65 64 64 64
88 90 91 92 94 95 96 96 97 97 96 96 96 96 97 97 97 98 98 97 97 97 96 95 95 94 94 94 94 95 97 99 100 100 100 100 100 100 101 102 102 102 102 102 101 100 99 99 99 99 98 97 95 93 93 92 91 90 89 89 88 87 87 86 85 84 83 82 80 77 75 74 71 70 71 73 75 76 76 76 76 75 74 74 73 71 71 70 68 67 66 66 66 64 63 64 64
91 92 93 94 95 97 98 98 99 100 100 99 99 99 99 98 95 95 95 93 92 92 91 92 92 92 93 93 92 92 93 94 95 96 96 96 96 97 97 98 98 99 99 99 99 98 97 96 96 95 95 94 93 92 91 90 88 87 86 86 86 86 85 84 82 81 80 79 77 75 74 72 70 69 70 72 74 74 75 75 74 73 73 72 71 71 70 69 68 67 66 66 65 63 62 63 64
94 95 96 96 96 97 99 100 101 102 101 100 98 98 99 98 94 93 94 91 89 87 86 87 87 87 88 88 89 90 90 90 90 91 92 92 92 93 94 94 95 96 96 96 96 96 95 94 93 92 91 91 90 89 88 87 85 84 84 84 84 83 82 81 80 79 78 77 75 74 73 71 69 68 69 71 72 73 73 73 72 71 71 71 70 70 70 69 67 66 66 65 64 63 62 63 63
96 98 99 98 98 98 98 100 101 101 99 97 94 93 95 96 94 93 93 92 89 86 84 83 83 84 83 82 83 84 85 86 87 87 88 88 89 89 90 90 91 92 92 92 92 92 92 91 89 88 87 86 86 85 85 85 83 82 82 82 82 81 80 79 78 77 76 74 74 73 72 70 68 68 69 70 71 72 72 71 70 70 70 69 69 69 69 69 68 67 66 65 64 63 63 63 63
98 100 101 100 99 97 95 95 96 96 95 94 92 89 90 93 92 90 91 89 87 86 83 82 82 82 82 80 80 80 80 82 83 84 85 85 86 86 86 86 87 87 88 88 87 87 87 87 86 84 83 83 82 82 82 82 80 79 79 79 79 78 78 77 76 75 74 73 73 73 71 70 68 67 68 69 70 70 70 69 68 68 69 69 69 69 69 68 68 67 66 65 64 63 63 63 63
99 100 100 100 98 96 93 91 91 92 92 93 93 88 88 91 90 89 90 89 86 86 86 85 84 84 84 83 81 80 78 78 80 81 82 83 84 85 84 84 84 84 84 84 84 82 82 82 83 82 82 81 80 79 79 78 77 76 76 76 75 75 76 75 74 73 72 72 72 72 71 69 68 66 67 68 69 69 68 67 67 67 68 68 68 68 69 68 68 67 66 65 64 64 63 63 63
97 97 98 98 98 97 95 92 89 89 91 93 95 91 88 90 91 90 92 91 89 90 91 90 89 89 89 90 89 87 84 82 82 82 82 83 84 84 84 83 83 82 82 82 82 81 79 79 79 79 80 79 77 76 76 75 74 74 73 73 72 72 73 73 72 71 71 71 72 72 71 69 68 66 66 66 67 67 66 66 66 66 67 68 68 68 68 68 67 66 66 65 65 64 63 62 62
Wind_Direction
248 249 250 250 251 252 253 253 254 256 257 258 259 261 262 262 263 265 266 267 268 270 271 272 273 274 275 276 277 278 278 279 280 281 281 281 282 282 283 283 284 284 285 285 285 285 286 286 285 285 284 284 285 285 285 285 286 286 287 287 287 287 287 286 285 284 284 283 282 281 281 280 279 279 279 279 279 279 278 278 278 278 278 277 277 276 275 274 274 273 273 272 272 271 271 270 271
249 250 251 252 253 253 255 255 256 258 259 260 261 262 263 264 265 266 268 269 270 271 273 274 274 275 276 277 278 279 280 281 281 282 282 282 283 283 284 284 285 285 286 286 286 285 285 286 286 286 287 287 287 287 288 288 288 288 288 288 287 287 286 286 285 285 284 283 283 282 282 281 281 281 281 281 281 280 280 279 278 277 276 275 274 274 273 273 272 271 271 270 270 269 268 268 268
249 250 251 252 253 254 256 257 258 259 260 261 262 263 263 265 266 267 269 270 272 273 274 275 276 276 277 278 279 280 281 282 282 283 283 283 284 284 285 285 286 286 286 285 285 285 286 288 290 290 291 291 290 290 289 289 288 288 287 286 286 286 286 286 286 285 284 284 283 283 282 282 282 281 281 280 280 279 278 278 277 276 275 274 274 273 273 273 272 271 270 270 269 269 268 269 269
251 251 252 253 254 255 256 258 259 260 261 261 262 264 265 266 268 269 270 272 273 274 275 276 277 278 278 279 280 281 282 282 283 283 284 285 286 286 286 286 286 286 286 286 287 289 290 291 292 293 293 292 291 290 289 288 287 287 286 286 286 286 286 285 285 284 284 283 283 282 282 282 281 281 280 279 279 278 278 277 277 276 276 275 275 274 273 273 272 271 271 270 270 270 271 271 272
254 255 255 256 256 257 258 259 260 261 261 262 264 265 267 268 270 272 273 274 274 275 276 277 278 278 279 280 281 281 282 283 284 285 286 287 287 287 287 287 287 287 288 289 291 292 293 293 293 292 292 290 289 288 288 287 287 287 287 287 286 286 285 284 284 283 283 282 282 282 282 281 281 281 281 280 279 279 278 277 277 276 276 275 274 274 273 272 271 271 270 270 270 270 271 272 272
258 258 259 259 260 260 261 262 262 263 263 264 265 267 268 270 271 273 274 275 275 276 276 277 278 278 279 279 280 281 282 284 285 287 288 288 288 288 288 288 290 291 292 293 294 295 295 294 293 292 291 290 289 289 289 288 288 288 287 286 286 285 284 283 282 282 281 281 281 281 281 281 281 281 281 280 280 279 278 276 275 275 274 274 273 273 273 272 271 270 270 270 269 270 270 271 271
262 262 262 263 263 264 264 264 265 265 266 266 267 268 270 271 272 273 273 274 275 275 276 276 277 277 278 279 280 281 283 285 287 288 288 289 290 291 291 292 294 295 296 296 296 296 295 294 293 292 291 291 290 290 290 290 289 288 287 286 285 284 283 282 281 281 281 280 280 280 280 280 280 280 280 279 279 278 277 276 275 274 273 273 273 272 272 272 271 270 269 269 269 269 269 270 271
265 265 266 266 266 266 266 267 267 268 268 269 269 269 270 270 271 271 272 272 273 274 274 275 276 277 277 279 281 283 285 286 287 288 289 291 292 294 295 296 296 297 296 296 295 295 294 294 293 292 292 292 292 292 291 290 289 288 287 286 285 284 284 283 282 281 281 280 280 280 279 279 279 279 278 278 278 277 276 275 274 274 273 273 272 272 271 271 270 269 268 268 269 269 270 272 273
266 266 267 267 267 267 268 268 269 269 269 269 269 268 268 268 268 269 270 271 272 273 273 274 275 276 278 280 282 284 285 286 287 289 291 292 294 296 296 297 296 296 295 294 294 293 293 293 293 293 293 293 293 293 292 291 290 289 289 288 287 286 285 284 284 283 282 281 280 280 279 279 278 278 277 277 276 276 275 274 274 273 272 272 271 271 270 269 269 268 268 269 270 271 272 274 275
266 266 266 266 267 267 268 268 268 268 268 267 267 266 266 266 267 268 269 270 271 271 272 273 274 276 278 280 283 284 285 286 288 290 292 294 295 296 296 295 295 294 294 293 293 292 292 292 293 293 293 292 292 292 292 291 291 290 289 289 288 287 286 285 284 283 282 281 280 279 279 278 277 276 276 275 275 274 273 273 272 272 271 271 270 269 269 268 268 269 269 270 271 272 274 275 277
266 266 267 267 267 268 268 268 268 267 266 266 266 266 266 266 267 267 268 268 269 270 271 273 275 277 279 281 282 283 285 287 289 291 293 294 295 295 294 293 293 293 292 292 292 292 292 292 292 292 292 292 292 292 292 292 292 291 291 290 289 288 287 286 285 283 282 281 280 279 277 276 275 275 274 273 273 272 272 271 271 270 270 269 269 269 268 268 269 270 270 271 272 273 275 277 279
265 266 267 268 268 268 268 267 267 266 265 265 264 265 265 265 265 266 266 266 267 269 271 273 275 277 279 280 282 284 286 288 290 291 293 293 293 293 293 292 292 292 292 292 292 292 293 293 292 292 292 292 292 292 293 293 293 293 293 292 291 290 289 288 287 286 284 283 281 280 278 277 275 274 273 273 272 272 271 271 270 270 269 269 269 269 269 269 270 271 271 272 274 275 278 279 281
264 265 267 267 268 268 268 267 266 265 263 263 262 262 263 263 263 264 264 265 267 269 271 273 276 277 279 281 283 285 286 288 289 291 292 292 292 293 292 292 292 292 292 292 292 292 293 293 293 293 293 292 292 292 291 292 293 294 294 293 293 292 291 290 289 287 286 285 283 282 280 278 277 275 274 273 272 272 271 271 271 270 270 270 270 270 270 271 272 272 273 275 276 278 280 281 282
263 265 266 267 267 267 266 264 263 261 260 260 259 260 260 261 261 262 264 265 268 270 273 275 276 278 280 282 284 285 287 288 290 291 292 292 292 292 292 292 292 293 293 293 293 293 293 293 293 293 293 293 293 292 291 292 294 295 295 296 295 295 294 293 292 290 288 286 284 283 281 279 278 276 275 274 273 273 272 272 272 272 271 271 272 272 272 273 274 275 276 278 279 280 282 282 283
263 264 265 265 265 263 261 259 258 257 256 256 256 257 258 259 260 262 265 267 270 272 274 275 277 279 281 283 284 286 288 289 291 291 292 292 293 293 293 293 293 294 294 295 295 295 295 295 295 295 295 295 295 296 296 296 296 297 298 299 299 298 298 297 296 294 291 289 287 285 283 281 280 278 277 276 275 274 274 274 274 273 274 274 274 274 275 275 276 277 279 280 281 282 283 284 285
262 263 263 261 259 257 255 254 253 253 252 252 252 254 255 258 261 264 267 269 272 273 275 276 278 280 281 283 284 286 288 290 291 291 292 293 293 294 294 295 295 296 297 297 298 298 297 297 297 297 297 298 298 299 300 300 301 301 302 302 301 301 300 299 298 297 294 292 289 287 285 283 282 280 279 278 277 276 276 276 276 276 276 276 276 276 277 278 279 280 281 282 282 283 284 285 286
261 260 257 254 252 250 249 249 248 247 247 248 249 252 255 259 262 265 268 271 272 273 274 276 278 280 282 284 285 287 288 289 290 291 292 293 294 295 296 296 297 298 299 299 299 299 299 299 298 298 299 299 300 301 302 303 303 303 303 303 303 302 301 301 300 298 296 294 292 289 287 285 284 282 281 280 279 279 278 278 278 278 278 278 278 279 279 280 281 282 282 283 283 284 285 286 286
256 252 249 247 246 245 244 243 242 242 243 245 248 252 256 260 263 266 268 270 271 273 275 277 279 281 282 284 286 287 288 289 290 291 292 293 295 296 297 297 298 299 299 299 299 300 299 299 299 300 300 301 302 303 303 304 304 304 304 303 303 303 302 302 301 300 298 296 294 292 290 288 286 284 283 282 282 281 281 281 281 281 281 281 281 281 281 282 282 283 283 283 284 285 286 286 287
246 243 242 240 239 237 236 236 237 239 242 246 249 253 257 260 263 265 268 269 271 273 276 278 279 281 283 285 287 288 289 289 290 291 293 294 295 296 297 298 299 299 299 299 299 300 300 300 301 302 302 303 304 304 305 305 305 304 304 303 303 303 303 302 302 301 300 298 296 294 292 290 289 287 286 285 284 283 283 283 283 283 283 283 283 283 283 283 283 283 283 284 285 286 287 288 289
236 235 233 231 230 229 229 231 234 238 243 247 252 255 259 261 263 265 267 270 272 275 277 278 280 281 283 285 286 288 289 289 290 291 292 294 295 296 297 298 299 299 300 300 300 300 301 302 302 303 303 304 305 305 305 305 304 304 304 304 303 303 303 302 302 301 300 299 297 295 294 292 291 289 288 286 286 285 284 284 284 284 284 284 283 283 283 283 284 284 285 287 287 288 289 290 291
226 224 222 221 221 223 226 230 235 241 246 250 254 258 260 263 265 266 269 272 274 276 277 279 280 281 283 285 286 287 288 289 290 291 292 294 295 296 297 298 298 299 299 300 301 301 302 302 303 303 304 304 305 305 305 304 304 304 303 303 303 303 303 302 302 302 301 299 298 296 295 293 292 290 289 287 286 286 285 285 285 285 285 284 284 284 284 285 286 287 288 289 289 290 291 291 292
214 212 212 214 217 223 228 235 241 245 250 253 257 260 262 264 266 268 271 273 275 276 278 279 280 282 283 284 285 286 288 289 290 291 293 294 295 296 297 297 298 298 299 300 301 301 302 302 303 303 304 304 304 304 304 304 303 303 303 303 303 303 303 302 302 302 301 299 298 297 295 294 293 291 290 289 288 287 287 287 286 286 286 286 286 286 286 287 287 288 289 290 291 292 292 292 292
204 206 209 214 221 228 235 240 245 250 253 256 259 261 264 266 269 272 274 275 276 278 279 280 281 282 283 284 285 287 288 289 291 292 293 294 295 296 297 297 297 298 299 300 300 301 301 302 302 303 303 303 304 304 303 303 303 303 303 303 303 302 302 302 302 301 301 299 298 297 296 295 293 292 292 291 290 290 289 289 289 288 288 288 288 288 288 288 289 290 291 292 293 293 293 293 293
202 207 213 221 229 235 241 245 249 253 256 259 262 265 268 270 273 274 276 277 278 279 281 281 282 283 284 285 286 287 289 290 291 292 294 295 295 295 296 296 297 297 298 299 300 300 301 301 302 302 303 303 303 303 303 303 303 303 303 303 302 302 302 302 302 301 300 299 298 297 296 295 294 293 293 292 292 291 291 290 290 289 289 289 289 289 289 290 291 292 293 293 293 293 293 294 294
207 215 222 230 236 241 246 250 254 258 261 264 267 270 273 275 276 278 279 280 282 282 283 283 284 285 286 287 287 289 290 291 292 293 294 294 295 295 296 296 296 297 298 298 299 299 300 301 301 302 302 303 303 303 303 303 303 303 303 303 302 302 302 302 302 301 300 299 298 297 296 296 295 294 293 292 292 291 291 291 290 290 290 290 290 290 291 292 292 293 294 294 294 294 294 294 295
217 224 230 236 242 246 251 255 259 263 267 270 273 275 277 279 280 281 282 283 284 285 285 286 286 287 288 289 289 290 291 292 293 293 294 294 295 295 295 296 296 297 297 298 299 299 300 301 301 302 302 303 303 303 303 303 303 303 303 303 302 302 302 302 302 301 300 299 298 297 297 296 295 294 293 293 292 292 291 291 291 291 291 291 291 291 292 293 293 294 294 295 295 295 296 296 296
226 231 237 242 248 252 257 262 265 269 272 275 277 278 280 282 282 283 285 285 285 286 287 288 288 289 290 291 291 292 292 292 293 293 294 294 294 295 295 295 296 297 297 297 298 299 300 301 302 302 303 303 303 303 302 302 302 303 303 303 303 303 303 303 302 302 300 299 298 298 297 296 295 294 293 293 292 292 291 291 291 291 291 291 292 292 293 293 294 295 296 296 297 297 297 297 298
234 239 244 249 255 260 264 267 270 272 275 277 279 280 281 283 284 283 285 286 287 287 288 289 290 291 291 291 292 292 292 292 293 293 294 294 294 294 295 295 296 296 297 297 298 299 300 301 302 302 303 303 302 302 302 302 303 303 303 303 303 303 303 303 302 302 301 300 299 298 297 296 295 294 294 293 293 292 292 292 292 292 292 292 292 293 294 295 296 297 298 298 298 299 299 299 299
243 248 253 258 262 265 268 271 273 275 277 279 281 282 281 284 286 285 284 286 288 288 289 290 291 291 291 291 291 292 292 292 293 293 294 294 294 295 295 295 296 297 297 298 298 299 300 301 302 302 302 302 302 302 302 302 303 303 303 303 303 303 302 302 302 301 301 300 299 298 297 296 295 295 294 294 294 293 293 293 293 293 293 294 294 295 297 298 299 300 300 300 300 300 300 300 300
251 255 260 264 268 269 271 274 277 278 280 281 284 285 283 282 287 289 287 287 289 289 289 289 290 290 291 291 291 292 292 292 293 293 294 294 295 295 295 296 296 297 298 298 299 300 300 301 301 301 301 301 301 301 302 303 303 303 303 303 303 302 302 302 302 301 301 300 299 298 297 297 296 296 296 295 295 295 295 295 295 295 296 296 297 298 300 301 301 301 301 301 301 301 301 301 301
260 263 266 268 272 276 276 277 280 282 283 282 283 288 287 282 283 288 290 289 289 289 289 289 289 290 290 291 291 292 292 293 293 293 294 295 295 296 296 297 297 297 298 299 300 300 300 301 301 301 301 301 302 302 303 303 303 303 302 302 302 302 302 302 302 301 301 300 299 299 299 299 298 298 298 298 298 298 298 298 298 298 298 298 299 301 302 302 302 302 302 301 301 302 302 302 302
268 270 272 273 276 279 282 282 281 283 285 285 283 287 290 287 283 284 289 292 291 290 289 289 289 289 290 290 291 292 292 293 293 293 294 295 295 296 296 297 297 298 299 299 299 300 300 301 301 301 302 302 302 303 303 303 303 302 302 302 302 302 302 302 302 302 301 301 300 300 300 300 300 300 300 300 300 300 300 300 300 300 300 300 301 302 303 304 303 303 303 303 303 303 303 303 302
274 275 277 278 279 281 284 286 285 284 285 286 286 287 290 290 287 283 284 288 292 292 291 290 290 289 290 290 290 291 292 292 293 293 294 294 295 296 296 297 297 298 298 299 299 300 300 301 301 302 303 303 303 303 303 303 302 302 302 302 302 302 302 303 302 302 301 301 301 301 301 301 301 301 302 302 302 302 302 301 301 302 301 302 303 304 305 305 304 304 304 304 304 304 304 303 304
279 280 281 282 283 283 285 287 287 286 287 286 286 288 290 291 291 288 284 284 287 290 291 292 291 290 290 290 290 291 291 292 292 293 294 294 295 296 296 297 297 297 298 298 299 300 300 301 302 302 303 303 303 303 302 302 302 302 302 302 302 302 302 302 302 302 302 301 301 301 302 302 302 303 303 303 304 303 303 302 303 303 303 304 305 306 306 305 305 305 305 305 305 305 304 304 305
281 283 285 286 287 286 284 286 287 286 288 288 287 289 291 291 291 291 289 286 286 287 289 291 292 291 291 290 291 291 291 292 292 293 294 295 295 296 296 297 297 297 298 298 299 300 301 302 302 302 303 303 302 302 302 302 301 301 301 302 302 302 302 302 302 302 301 302 302 302 302 303 303 304 304 304 305 304 304 304 304 304 304 305 306 306 306 306 306 306 306 306 306 305 305 305 307
283 285 286 286 288 287 285 284 285 285 286 288 288 290 292 291 291 292 292 290 288 288 289 290 290 291 291 291 291 291 292 292 292 293 294 295 296 297 297 296 297 297 298 299 299 300 301 302 302 302 302 302 302 301 301 301 301 301 301 302 302 302 302 301 301 301 301 302 302 302 303 304 304 304 305 305 305 305 305 305 305 305 305 306 307 307 307 306 307 307 307 306 306 306 306 307 308
287 286 286 285 284 286 286 285 285 286 286 288 289 291 293 292 292 293 293 292 291 290 290 290 290 290 291 291 291 292 293 294 294 295 295 296 297 297 297 297 297 298 299 299 300 301 302 302 302 302 302 302 301 301 301 301 301 301 301 302 302 301 301 301 301 302 302 302 303 303 304 304 305 305 306 306 306 306 306 305 306 306 306 307 308 307 307 307 307 308 307 307 307 307 307 308 310
288 287 286 286 284 285 288 288 287 288 289 291 290 292 295 294 294 295 294 294 293 292 292 291 291 291 291 292 292 293 294 295 296 296 297 297 297 297 297 297 298 299 300 300 301 301 302 302 302 302 302 301 301 301 301 301 301 301 301 301 301 301 301 301 301 302 302 303 303 304 304 305 305 306 306 307 307 306 306 306 306 306 307 308 308 308 307 308 308 308 308 308 309 309 309 309 310
289 289 288 288 288 288 290 291 291 291 290 292 292 294 297 297 296 296 295 295 294 294 294 293 292 292 293 293 293 294 294 295 296 297 298 298 297 297 296 297 298 299 300 300 301 301 302 302 302 301 301 301 301 301 301 301 301 300 300 300 300 300 300 301 301 302 303 303 303 304 304 305 306 306 307 307 307 307 307 307 307 307 308 309 308 308 308 309 309 309 309 310 310 310 310 310 311
290 291 291 290 290 289 289 290 292 293 292 293 292 293 299 300 297 297 295 295 295 295 296 295 294 294 294 294 294 295 295 296 297 298 299 298 298 297 297 298 299 300 300 301 301 301 301 301 301 301 300 300 301 301 301 300 300 300 300 300 300 300 301 301 302 302 303 303 304 304 305 305 306 307 308 307 307 307 307 307 307 307 308 309 308 308 309 310 310 310 310 311 311 310 310 310 311
292 291 292 292 292 291 290 289 290 293 293 294 293 292 299 302 299 298 296 292 292 293 294 294 294 294 294 295 295 296 297 297 298 299 300 299 298 298 298 299 300 300 300 301 301 301 301 300 300 300 300 300 301 300 300 300 300 300 300 300 300 300 301 302 302 303 303 304 304 304 305 306 306 307 308 308 307 307 307 307 307 308 308 309 308 309 310 310 311 311 311 311 311 310 310 311 311
294 293 292 292 293 293 293 291 291 292 293 295 293 290 294 299 298 297 295 293 290 290 291 292 293 294 294 295 296 297 298 298 299 299 299 298 298 298 299 300 300 300 300 300 300 300 300 300 300 300 300 300 300 300 299 299 299 300 300 300 300 301 302 302 303 303 303 304 304 305 305 306 307 308 308 307 307 307 308 308 308 308 308 309 309 310 310 311 312 312 312 312 311 311 311 311 311
295 294 294 294 293 293 293 293 292 292 293 294 293 290 290 294 295 293 292 291 291 291 292 293 294 294 295 295 296 297 299 299 299 298 297 297 297 298 299 299 299 299 299 299 299 299 299 299 299 300 300 300 299 299 299 299 299 299 300 300 301 301 302 303 303 303 303 304 304 305 306 306 307 308 308 307 307 307 308 308 308 308 308 309 309 310 311 311 312 312 312 312 311 311 311 311 311
295 295 295 295 294 294 294 293 293 292 292 293 293 292 291 292 294 293 291 291 291 292 293 294 295 295 296 295 296 297 298 298 297 297 297 297 297 297 298 297 297 297 297 298 298 299 299 299 299 299 299 299 299 298 298 298 299 299 300 301 301 302 302 303 303 303 303 303 304 305 305 306 307 308 308 307 307 307 308 308 308 308 309 309 310 310 311 312 312 312 312 312 311 311 311 311 312
295 294 295 295 294 294 293 293 292 292 291 291 291 291 292 293 294 294 293 293 293 293 295 296 296 296 296 296 297 298 297 297 296 296 296 297 296 296 296 297 297 297 297 297 297 298 298 298 298 298 298 298 298 298 299 299 299 300 300 301 301 302 302 303 303 302 302 303 304 304 305 306 307 308 307 306 307 307 307 308 308 308 309 309 310 310 311 312 312 312 312 312 312 312 312 312 312
294 293 292 293 292 292 293 292 292 292 292 292 293 293 293 294 295 295 294 293 293 294 296 296 296 296 296 297 298 298 297 297 297 297 297 296 296 296 296 296 296 296 296 296 297 297 297 297 297 297 297 298 298 299 299 299 299 300 300 301 301 301 302 302 302 302 302 303 304 304 305 306 308 308 307 307 307 307 307 308 308 308 309 309 309 310 311 312 312 312 312 312 312 312 312 312 312
292 292 292 292 293 293 294 294 294 295 295 295 295 295 294 294 293 293 293 292 292 294 296 297 297 297 297 297 297 297 297 297 297 296 296 295 295 294 294 295 295 295 295 295 296 296 297 297 297 297 297 298 299 299 299 299 299 300 300 300 300 301 301 301 301 301 302 303 304 305 306 307 308 308 307 307 307 307 308 308 308 309 309 309 309 310 312 312 312 312 312 312 312 312 312 312 313
294 294 294 294 294 295 295 295 295 295 294 294 294 294 294 294 294 294 293 293 293 295 295 295 295 295 295 296 296 295 295 295 295 295 294 294 294 294 294 294 295 295 295 295 296 296 297 297 297 298 298 298 299 299 299 299 299 299 299 300 300 300 300 301 301 302 303 303 304 306 307 308 308 307 307 307 307 307 308 308 309 309 309 309 310 311 312 312 312 312 312 313 313 312 312 312 313
297 296 296 295 295 294 294 293 293 294 294 294 294 294 295 295 295 295 294 294 295 296 295 295 295 296 296 295 295 295 295 294 294 294 294 294 294 294 294 295 295 295 295 296 296 297 297 297 297 298 298 298 298 298 298 298 298 299 299 299 300 300 300 301 301 302 303 304 305 306 307 308 308 307 307 307 307 307 308 308 309 309 309 309 310 311 312 311 311 312 313 313 313 313 313 313 314
297 296 296 295 294 294 293 293 292 293 294 294 294 294 295 296 296 296 297 297 297 297 297 297 297 297 297 296 296 296 295 295 294 294 295 295 295 295 295 295 296 296 296 296 296 297 297 297 297 297 297 297 298 297 297 297 298 298 299 299 300 300 301 301 302 302 303 304 305 306 307 307 307 307 307 306 307 307 308 308 309 309 309 309 310 311 311 311 311 313 314 314 314 314 314 314 315
296 296 296 296 296 296 295 295 294 294 294 294 295 296 297 297 297 297 297 297 297 296 296 296 296 295 295 295 295 296 296 295 295 295 296 296 296 295 295 295 295 295 295 295 296 296 297 297 297 297 297 297 297 297 297 297 298 299 300 300 300 300 301 301 302 302 303 304 305 306 307 307 307 307 307 306 307 307 307 308 308 309 309 310 311 312 311 311 312 314 315 315 315 315 315 315 316
297 297 297 297 297 297 298 298 297 297 297 297 297 298 298 298 298 298 298 298 297 297 297 297 296 295 294 294 294 294 293 293 294 294 294 294 294 294 293 294 294 294 294 295 295 296 296 296 297 297 297 297 297 297 297 298 299 299 300 300 300 300 300 301 302 302 303 303 305 306 306 306 307 307 307 306 307 306 307 307 308 309 310 310 312 312 312 312 313 315 316 316 316 316 316 317 318
298 298 298 298 298 299 299 299 298 298 298 298 299 300 299 299 299 299 299 299 299 299 298 297 296 295 294 294 293 292 291 291 292 292 292 292 292 292 293 293 293 294 295 295 296 296 296 296 296 297 297 297 297 298 298 298 299 299 299 299 299 300 300 300 301 302 302 303 304 305 305 306 307 308 307 306 306 305 306 307 308 310 311 311 312 313 312 313 315 316 317 317 316 317 317 318 319
299 299 298 298 298 298 298 298 298 298 299 300 301 302 302 301 302 301 300 300 299 298 296 295 293 292 291 291 291 291 291 291 291 291 291 292 292 292 293 293 294 294 295 295 296 296 296 296 296 296 296 296 297 297 297 297 298 298 298 298 298 299 299 300 301 301 302 303 304 304 305 306 308 308 306 305 305 305 306 307 309 311 311 312 313 313 313 314 316 317 318 318 317 318 319 319 319
299 298 298 298 298 298 299 299 300 300 301 302 303 303 302 301 302 302 301 300 299 298 297 295 294 293 292 291 291 290 291 291 290 290 290 291 291 292 292 293 293 294 294 294 294 295 295 295 295 295 295 295 295 296 296 296 297 297 296 297 298 299 299 300 300 301 302 302 303 304 305 306 307 307 305 304 304 304 306 308 310 311 312 313 313 313 313 314 316 318 318 318 318 319 320 320 320
299 299 299 299 299 300 300 301 301 302 303 303 303 302 302 301 302 302 301 301 302 302 301 300 299 298 297 296 294 292 291 290 290 291 291 290 290 290 290 291 291 291 292 292 293 293 294 294 294 294 294 294 294 295 295 295 296 296 297 297 298 299 299 299 300 300 301 302 303 303 304 306 306 306 304 303 303 305 307 309 310 312 312 313 313 313 314 315 316 318 318 319 319 320 321 321 320
301 301 301 302 302 302 303 303 303 304 304 304 302 303 305 305 305 305 305 305 306 307 306 305 304 303 303 301 298 296 294 293 292 292 292 292 292 291 291 290 290 290 290 291 291 292 293 293 294 294 293 294 294 295 295 296 296 297 297 297 298 298 298 298 299 300 301 302 302 302 303 304 305 304 303 303 304 305 307 309 310 312 312 312 313 313 314 315 316 317 318 319 319 320 321 321 320
303 303 303 304 305 305 305 305 305 306 306 305 304 305 308 309 309 309 309 309 310 309 308 307 307 307 308 307 305 303 302 301 299 298 297 296 295 294 294 293 292 291 291 291 291 292 292 293 294 294 294 294 295 295 296 296 296 296 296 296 297 297 297 298 298 299 300 300 300 301 302 303 304 304 303 303 305 306 307 309 311 311 311 312 312 313 313 314 315 317 318 319 320 321 321 321 320